EW7354 Weather Reports


time (UTC)temp
C
wind
direction
speed
KPH
gust
KPH
rain 1hr
cm
rain 24hr
cm
rain mn
cm
humidity
%
barometer
mb
20260505100045 12 117 0.0 0.0 0.00 0.00 0.00 58 1000.5
20260505094544 13 117 0.0 4.8 0.00 0.00 0.00 57 1000.7
20260505093047 12 252 0.0 1.6 0.00 0.00 0.00 61 1000.9
20260505091550 13 136 0.0 3.2 0.00 0.00 0.00 62 1000.9
20260505090041 13 117 0.0 1.6 0.00 0.00 0.00 59 1001.0
20260505084539 13 117 0.0 1.6 0.00 0.00 0.00 58 1000.9
20260505083038 13 122 0.0 1.6 0.00 0.00 0.00 59 1001.0
20260505081536 13 116 0.0 1.6 0.00 0.00 0.00 59 1000.9
20260505080036 13 90 0.0 4.8 0.00 0.00 0.00 58 1000.8
20260505074533 13 105 0.0 4.8 0.00 0.00 0.00 58 1000.8
20260505073034 13 255 0.0 1.6 0.00 0.00 0.00 58 1000.6
20260505071534 13 347 0.0 1.6 0.00 0.00 0.00 59 1000.4
20260505070029 13 131 0.0 6.4 0.00 0.00 0.00 59 1000.4
20260505064526 13 342 4.8 14.5 0.00 0.00 0.00 57 1000.4
20260505063026 14 148 6.4 25.7 0.00 0.00 0.00 57 1000.3
20260505061523 14 159 3.2 11.3 0.00 0.00 0.00 58 1000.4
20260505060035 14 196 3.2 9.7 0.00 0.00 0.00 56 1000.3
20260505054520 14 197 3.2 14.5 0.00 0.00 0.00 57 1000.3
20260505053021 14 203 4.8 17.7 0.00 0.00 0.00 53 1000.2
20260505051524 15 129 0.0 6.4 0.00 0.00 0.00 53 1000.2
20260505041521 16 120 0.0 9.7 0.00 0.00 0.00 44 999.3
20260505040014 16 352 3.2 20.9 0.00 0.00 0.00 44 999.1
20260505034513 17 193 4.8 14.5 0.00 0.00 0.00 38 998.8
20260505033014 17 110 0.0 1.6 0.00 0.00 0.00 39 998.7
20260505031512 17 145 0.0 1.6 0.00 0.00 0.00 37 998.7
20260505030011 18 157 0.0 4.8 0.00 0.00 0.00 36 998.6
20260505024512 18 158 0.0 8.0 0.00 0.00 0.00 35 998.4
20260505023019 18 102 0.0 3.2 0.00 0.00 0.00 35 998.3
20260505021514 19 214 0.0 4.8 0.00 0.00 0.00 34 998.3
20260505020008 19 108 0.0 3.2 0.00 0.00 0.00 33 998.3
20260505014513 20 104 0.0 3.2 0.00 0.00 0.00 31 998.3
20260505013007 20 105 0.0 4.8 0.00 0.00 0.00 30 998.2
20260505011511 20 152 0.0 3.2 0.00 0.00 0.00 29 998.2
20260505010005 21 150 0.0 3.2 0.00 0.00 0.00 28 998.3
20260505004506 20 85 0.0 4.8 0.00 0.00 0.00 29 998.2
20260505003004 21 75 0.0 4.8 0.00 0.00 0.00 29 998.3
20260505001502 21 116 1.6 8.0 0.00 0.00 0.00 28 998.4
20260505000001 22 101 0.0 9.7 0.00 0.00 0.00 28 998.6
20260504234501 24 78 0.0 6.4 0.00 0.00 0.00 26 998.5
20260504233107 23 272 0.0 4.8 0.00 0.00 0.00 27 998.8
20260504231559 22 109 0.0 3.2 0.00 0.00 0.00 30 998.9
20260504230105 22 127 0.0 1.6 0.00 0.00 0.00 33 999.2
20260504224556 19 124 0.0 1.6 0.00 0.00 0.00 38 999.5
20260504223102 18 104 1.6 6.4 0.00 0.00 0.00 42 999.5
20260504221600 18 109 1.6 8.0 0.00 0.00 0.00 42 999.5
20260504220056 20 130 0.0 6.4 0.00 0.00 0.00 34 999.7
20260504214608 21 113 0.0 1.6 0.00 0.00 0.00 28 999.2
20260504213100 21 176 3.2 9.7 0.00 0.00 0.00 24 998.8
20260504211555 22 360 1.6 6.4 0.00 0.00 0.00 24 998.7
20260504210052 22 212 0.0 4.8 0.00 0.00 0.00 25 998.8
20260504204553 23 211 0.0 4.8 0.00 0.00 0.00 23 999.0
20260504203053 23 121 1.6 4.8 0.00 0.00 0.00 23 999.0
20260504201601 24 124 1.6 14.5 0.00 0.00 0.00 22 999.2
20260504200049 25 250 0.0 4.8 0.00 0.00 0.00 20 999.2
20260504194551 26 298 1.6 4.8 0.00 0.00 0.00 20 999.3
20260504193044 25 191 0.0 9.7 0.00 0.00 0.00 20 999.5
20260504191554 25 261 0.0 6.4 0.00 0.00 0.00 19 999.6
20260504190039 25 132 0.0 8.0 0.00 0.00 0.00 21 999.9
20260504184549 25 200 1.6 4.8 0.00 0.00 0.00 21 999.9
20260504183035 23 103 1.6 9.7 0.00 0.00 0.00 25 1000.1
20260504181536 23 266 3.2 9.7 0.00 0.00 0.00 24 1000.2
20260504180032 23 132 4.8 11.3 0.00 0.00 0.00 24 1000.5
20260504174531 23 292 1.6 9.7 0.00 0.00 0.00 25 1000.5
20260504173031 24 167 1.6 4.8 0.00 0.00 0.00 24 1000.7
20260504171525 23 136 0.0 6.4 0.00 0.00 0.00 32 1000.9
20260504140108 12 178 0.0 0.0 0.00 0.00 0.00 46 1002.5